Regional Weather Roundup
Issued by NWS

Home | Current Version | Previous Version | Graphics & Text | Print | Product List | Glossary On
Versions: 1 2 3 4 5 6 7 8 9 10 11 12 13 14 15 16 17 18 19 20 21 22 23 24 25 26 27 28 29 30 31 32 33 34 35 36 37 38 39 40 41 42 43 44 45 46 47 48 49 50
000
ASUS43 KMPX 091201
RWRMN
WEATHER ROUNDUP FOR MINNESOTA
NATIONAL WEATHER SERVICE TWIN CITIES/CHANHASSEN MN
600 AM CST TUE FEB 09 2016


NOTE: "FAIR" INDICATES FEW OR NO CLOUDS BELOW 12,000 FEET WITH NO
SIGNIFICANT WEATHER AND/OR OBSTRUCTIONS TO VISIBILITY. N/A MEANS
CURRENT SKY AND/OR WEATHER CONDITIONS ARE NOT AVAILABLE.

MNZ060>063-068>070-091300-
   Twin Cities Metro

CITY           SKY/WX    TMP DP  RH WIND       PRES   REMARKS
TWIN CITIES    PTCLDY     6  -2  69 NW17G29   30.06R WCI -13
6HR MIN TEMP:   6; 6HR MAX TEMP:  12; 6HR PCP: TRACE;

ST PAUL        MOCLDY     7  -2  66 NW20      30.08R WCI -13
CRYSTAL        CLEAR      6  -2  69 NW14G22   30.07R WCI -11
BLAINE         CLEAR      7   0  72 NW14G21   30.06S WCI -10
LAKEVILLE      PTCLDY     5   0  78 NW15G21   30.04S WCI -13
EDEN PRAIRIE   CLEAR      7  -2  66 NW17G24   30.06R WCI -12
6HR MIN TEMP:   6; 6HR MAX TEMP:  13;

SOUTH ST PAUL  PTCLDY     8  -1  67 NW9G17    30.06S WCI  -5
LAKE ELMO      CLOUDY     9   0  66 NW13G21   30.05S WCI  -7
$$
MNZ001>005-007-008-013>017-022>024-027-028-091300-
   Northwest Minnesota

CITY           SKY/WX    TMP DP  RH WIND       PRES   REMARKS
BEMIDJI        CLOUDY    -4  -7  85 NW7       30.14S WCI -18
HALLOCK        CLOUDY     7   1  78 N12       30.27R WCI  -9
ROSEAU         CLOUDY    -6  -9  84 NW5       30.22R WCI -17
WARROAD        LGT SNOW  -2  -6  84 NW7       30.20S WCI -16
CROOKSTON      PTCLDY     7   1  78 N12       30.26S WCI  -9
FOSSTON        CLOUDY    -6  -9  84 N7        30.18S WCI -20
DETROIT LAKES  CLOUDY     0  -4  85 NW10      30.17F WCI -17
MOORHEAD       CLEAR      3   0  85 NW6       30.25S WCI  -8
PARK RAPIDS    CLEAR      2  -4  76 N14       30.11S WCI -16
MAHNOMEN       PTSUNNY   -6 -10  84 NW6       30.18F WCI -19
$$
MNZ006-009>011-018-025>026-091300-
   North Central Minnesota

CITY           SKY/WX    TMP DP  RH WIND       PRES   REMARKS
BAUDETTE       CLOUDY    -5 -10  79 NW9       30.15S WCI -22
FLAG ISLAND    CLOUDY    -6  -9  84 N3        30.19R
INTL FALLS     CLOUDY    -6 -10  83 NW9       30.12R WCI -23
6HR MIN TEMP:  -6; 6HR MAX TEMP:   2;

WASKISH        CLOUDY    -8  -9  92 W5        30.15F WCI -19
LONGVILLE      CLEAR      0  -6  78 NW7G16    30.10S WCI -13
GRAND RAPIDS   PTCLDY    -2  -8  78 NW15      30.04S WCI -22
CRANE LAKE     CLOUDY     0  -4  85 N8G20     30.09R WCI -15
ORR            CLOUDY     0  -6  78 NW6G16    30.02S WCI -12
COOK           CLOUDY     0  -4  85 NW9G20    30.04S WCI -16
WALKER         FAIR      -1  -5  83 NW12G17   30.12R WCI -19
$$
MNZ012-019>021-037-091300-
   Northeast Minnesota

CITY           SKY/WX    TMP DP  RH WIND       PRES   REMARKS
DULUTH         CLOUDY    -1  -7  75 NW16G23   29.97R WCI -21
6HR MIN TEMP:  -1; 6HR MAX TEMP:   3;

ELY            CLOUDY     0  -6  78 NW8G20    30.00R WCI -15
HIBBING        CLOUDY    -1  -5  82 NW15      30.03R WCI -21
EVELETH        MOCLDY     3  -4  72 N5        30.03R WCI  -6
DULUTH HARBOR  CLOUDY     5  -2  72 NW12      30.07R WCI -11
TWO HARBORS    CLOUDY     5  -4  66 NW7G25    29.96R WCI  -7
SILVER BAY     CLOUDY     3  -4  72 NW7       29.95S WCI  -9
GRAND MARAIS     N/A      5  -5  63 MISG      29.97R
G MARAIS ARPRT CLOUDY    -2  -9  71 NW20G32   29.83S HAZE    WCI -25
$$
MNZ029>031-032-039>041-046>048-054>057-064-091300-
   West Central Minnesota

CITY           SKY/WX    TMP DP  RH WIND       PRES   REMARKS
FERGUS FALLS   CLEAR      1  -2  85 N13       30.24S WCI -16
WHEATON        CLEAR      7   1  78 NW9       30.26R WCI  -7
MORRIS         CLEAR      3   0  85 NW18      30.17S WCI -17
ALEXANDRIA     CLEAR      2  -3  80 N17       30.13R WCI -18
ELBOW LAKE     FAIR       2  -2  82 NW9       30.19S WCI -13
WADENA         CLEAR      1  -4  78 NW10      30.13S WCI -14
GLENWOOD       CLEAR      1  -2  85 NW13      30.14R WCI -16
APPLETON       CLEAR      7   0  72 NW13      30.21S WCI  -9
BENSON         CLEAR      3  -2  78 N3        30.18R
ORTONVILLE     CLEAR      5  -2  72 NW10      30.21S WCI -10
MADISON        CLEAR      7   0  72 NW14      30.22S WCI -10
WILLMAR        FAIR       7   0  72 NW15      30.16R WCI -11
$$
MNZ033>034-036-042>043-049>051-058-059-091300-
   Central Minnesota

CITY           SKY/WX    TMP DP  RH WIND       PRES   REMARKS
ST CLOUD       CLEAR      4  -3  73 NW13      30.09R WCI -13
6HR MIN TEMP:   4; 6HR MAX TEMP:  10;

SAUK CENTRE    FAIR       2  -3  78 NW17      30.13R WCI -18
PAYNESVILLE    PTCLDY     4  -2  78 NW12      30.13R WCI -12
AITKIN         CLEAR      1  -6  71 NW7       30.06R WCI -11
PINE RIVER     CLEAR      1  -4  78 NW13G18   30.13R WCI -16
BRAINERD       PTCLDY     1  -5  75 NW13      30.10R WCI -17
STAPLES        MOCLDY     1  -4  78 N15       30.12R WCI -18
LONG PRAIRIE   FAIR       1  -4  78 NW13      30.12R WCI -16
LITTLE FALLS   CLEAR      3  -4  72 NW8       30.12R WCI -10
LITCHFIELD     CLEAR      5   0  78 NW14      30.11R WCI -12
BUFFALO        CLEAR      5  -2  72 NW12G17   30.10S WCI -11
MAPLE LAKE     CLEAR      6   0  76 NW10G17   30.10S WCI  -9
$$
MNZ037-044-045-052-053-091300-
   East Central Minnesota

CITY           SKY/WX    TMP DP  RH WIND       PRES   REMARKS
PRINCETON      CLEAR      5  -2  72 NW9       30.08R WCI  -9
MORA           CLEAR      5  -2  72 NW15      30.07S WCI -13
CAMBRIDGE      CLEAR      7  -2  66 NW8G17    30.06R WCI  -6
RUSH CITY      CLOUDY     3  -4  73 N10       30.06S WCI -12
MOOSE LAKE     CLEAR      1  -6  71 N8        30.03S WCI -12
HINCKLEY       FAIR       3  -4  72 N9G16     30.06R WCI -11
CLOQUET        CLOUDY    -2  -8  78 NW10      30.01S WCI -19
MCGREGOR       CLEAR      1  -2  85 NW8       30.06R WCI -12
$$
MNZ071>073-080-081-089-090-097-098-091300-
   Southwest Minnesota

CITY           SKY/WX    TMP DP  RH WIND       PRES   REMARKS
MONTEVIDEO     CLEAR      3   0  85 N15       30.21R WCI -15
GRANITE FALLS  CLEAR      7   2  78 NW20      30.21R WCI -12
CANBY          PTCLDY     9   4  80 W14       30.22S WCI  -7
MARSHALL       CLEAR      5   0  79 N24G31    30.18R WCI -17
REDWOOD FALLS  CLEAR      5   0  79 NW14G23   30.15R WCI -12
OLIVIA         CLEAR      9   1  72 NW17      30.14R WCI -10
PIPESTONE      CLEAR      7  -4  61 N15G21    30.14R WCI -11
WINDOM         MOCLDY     3   0  85 NW26      30.10R FOG     WCI -20
WORTHINGTON    CLOUDY     3  -2  78 N23       30.12R WCI -19
JACKSON        CLOUDY     5   0  78 NW31G39   30.08R HAZE    WCI -19
TRACY          CLEAR      6   2  83 N20G29    30.15R WCI -14
SLAYTON        MOCLDY     4   1  88 NW22G29   30.11S FOG     WCI -18
$$
MNZ065>067-074>077-082>085-091>093-091300-
   South Central Minnesota

CITY           SKY/WX    TMP DP  RH WIND       PRES   REMARKS
MANKATO        CLEAR      7   0  72 NW17G23   30.07S WCI -12
NEW ULM        CLEAR      7   0  72 NW21G26   30.09R WCI -13
ST JAMES       PTCLDY     7   1  78 NW24      30.11S WCI -15
FAIRMONT       CLEAR      5  -2  72 NW21      30.06S WCI -16
GLENCOE        CLEAR      7   1  76 NW15G23   30.09R WCI -10
FARIBAULT      PTCLDY     7   0  72 NW8G17    30.04S WCI  -6
OWATONNA       CLOUDY     7   0  72 NW17G23   30.02S WCI -12
WASECA         CLEAR      7   1  78 NW16      30.05S WCI -11
ALBERT LEA     CLOUDY     9   1  72 NW15G21   30.01R WCI  -8
$$
MNZ078>079-086>088-094>096-091300-
   Southeast Minnesota

CITY           SKY/WX    TMP DP  RH WIND       PRES   REMARKS
ROCHESTER      MOCLDY     6   0  76 N18       29.97R WCI -13
6HR MIN TEMP:   6; 6HR MAX TEMP:  11; 6HR PCP: TRACE;

RED WING       PTCLDY     7  -2  66 NW9       30.04R WCI  -7
STANTON        CLOUDY     9   1  69 N16G25    30.03S WCI  -8
DODGE CENTER   PTCLDY     3   0  85 N14       29.98R WCI -15
WINONA         MOCLDY    10   1  67 N12G20    30.01R WCI  -4
AUSTIN         CLOUDY     9   3  78 NW15G24   29.99R WCI  -8
PRESTON        MOCLDY     6   0  75 N12       29.95S WCI -10
$$
ABBREVIATIONS USED IN REMARKS
   TC - TEMPERATURES IN CELSIUS
  WCI - WIND CHILL INDEX
   HX - HEAT INDEX
  VSB - VISIBILITY
$$



USA.gov is the U.S. government's official web portal to all federal, state and local government web resources and services.